{"data":{"norad_id":58210,"epoch":"2026-09-20T11:22:51.100320Z","epoch_age_seconds":145810,"freshness":"FRESH","line1":"1 58210U 23170E   26263.47420255  .00000065  00000+0  11895-4 0  9995","line2":"2 58210  43.0035 174.6654 0001033 271.0454  89.0279 15.27576885160080","mean_motion":15.27576885,"eccentricity":0.0001033,"inclination_deg":43.0035,"raan_deg":174.6654,"arg_perigee_deg":271.0454,"mean_anomaly_deg":89.0279,"bstar":1.1895e-5,"rev_number":16008,"period_min":94.266940940259,"perigee_km":482.34966199887,"apogee_km":483.76718497336,"semimajor_km":6861.1954234861,"source":"CELESTRAK","updated_at":"2026-09-21T09:00:33.831774Z"}}